Tracking 31027 objects as of 19-Jul-2025
HD Live streaming from Space Station
objects crossing your sky now

FENGYUN 1C DEB

Track FENGYUN 1C DEB now!
10-day predictions


NORAD ID: 35240
Int'l Code: 1999-025DQY
Perigee: 794.2 km
Apogee: 858.6 km
Inclination: 99.3 °
Period: 101.3 minutes
Semi major axis: 7197 km
RCS: 0.0037 m2 (small)
Launch date: May 10, 1999
Source: People's Republic of China (PRC)
Launch site: Taiyaun Space Center, China (TSC)

Note: This is SATELLITE DEBRIS
Your satellite tracking list
ABS 3
Track 1 satellite(s)




NASA's NSSDC Master Catalog

Two Line Element Set (TLE):
1 35240U 99025DQY 25197.32434391  .00001999  00000-0  92098-3 0  9991
2 35240  99.3391 150.8277 0044700 216.1754 143.6396 14.21803471910408
Source of the keplerian elements: AFSPC